Terminal Aerodrome Forecast
Issued by NWS

Home | Current Version | Previous Version | Text Only | Print | Product List | Glossary On
Versions: 1 2 3 4 5 6 7 8 9 10 11 12 13 14 15 16 17 18 19 20 21
399
FTUS43 KDLH 211730
TAFBRD
TAF
KBRD 211730Z 2118/2218 17008KT P6SM SCT080
     FM221200 19007KT P6SM SKC
     FM221500 19013G23KT P6SM SKC=

USA.gov is the U.S. government's official web portal to all federal, state and local government web resources and services.